{"data":{"norad_id":63121,"epoch":"2026-05-25T03:11:48.697728Z","epoch_age_seconds":63250,"freshness":"FRESH","line1":"1 63121U 25039T   26145.13320252  .00013213  00000+0  48878-3 0  9995","line2":"2 63121  43.0025 300.5665 0001029 277.1956  82.8779 15.27581838 69760","mean_motion":15.27581838,"eccentricity":0.0001029,"inclination_deg":43.0025,"raan_deg":300.5665,"arg_perigee_deg":277.1956,"mean_anomaly_deg":82.8779,"bstar":0.00048878,"rev_number":6976,"period_min":94.266635291065,"perigee_km":482.337576929,"apogee_km":483.74960789491,"semimajor_km":6861.180592412,"source":"CELESTRAK","updated_at":"2026-05-25T13:38:19.912518Z"}}